Content
SEND FEEDBACK

Daily
Averages
Monthly
Summary
United States of America

PARKERSBURG, WEST VIRGINIA


Home > North America > United States > West Virginia
Elevation: 659 feet     Latitude: 39 16N     Longitude: 081 34W

WEATHER
 
SELECT A DAY
Number of Records: 211,585;   Date Range: 1/1/95 - 12/19/14
 
SHARE

PRINT THIS DATA

[ ← Previous Day ]
WEATHER ALMANAC - AUGUST 25, 2014
[ Next Day → ]
[ °C ]   °F
Weather ElementAverageHighLow
Temperature74.8 °F84 °F (1:53 pm)64.9 °F (12:55 am)
Dewpoint63.3 °F66 °F (8:53 am)61 °F (11:53 pm)
Humidity69.8 %97 % (1:13 am)47 % (1:53 pm)
Barometer30.12 in30.17 in (10:53 am)30.10 in (2:53 pm)
Wind Speed3.9 mph11.5 mph (12:53 pm)
Weather ElementAverage
Visibility10 mi
Wind DirectionENE (69.5 °)

Weather ElementTotal
Precipitation---
Cooling Degree Days9.5 (Base 65)
Growing Degree Days24.5 (Base 50)
Averaged from 19 records on August 25, 2014
WEATHER CONDITIONS BREAKOUT
WIND DIRECTION BREAKOUT
WEATHER BY HOUR - AUGUST 25, 2014
[ °C ]   °F
Local TimeTemperatureDewpointHumidityBarometerVisibilityWind DirectionWind SpeedGust SpeedPrecipitationEventsConditions
12:53 AM71.1 °F66.0 °F84 %30.11 in10.0 miEast (100°)3.5 mphClear
1:53 AM69.1 °F64.9 °F87 %30.12 in10.0 miCalmClear
2:53 AM68.0 °F64.9 °F90 %30.11 in10.0 miEast (80°)3.5 mphMostly Cloudy
3:53 AM68.0 °F64.9 °F90 %30.10 in10.0 miEast (90°)3.5 mphScattered Clouds
5:53 AM66.0 °F64.0 °F93 %30.10 in10.0 miEast (100°)3.5 mphPartly Cloudy
6:53 AM66.0 °F64.0 °F93 %30.12 in10.0 miCalmOvercast
8:53 AM69.1 °F64.0 °F84 %30.16 in10.0 miESE (110°)4.6 mphOvercast
10:53 AM75.0 °F61.0 °F62 %30.17 in10.0 miSouth (180°)8.1 mphClear
11:53 AM79.0 °F61.0 °F54 %30.16 in10.0 miSSE (150°)11.5 mphScattered Clouds
12:53 PM81.0 °F61.0 °F50 %30.15 in10.0 miVariable4.6 mphScattered Clouds
1:53 PM81.0 °F63.0 °F54 %30.14 in10.0 miVariable3.5 mphScattered Clouds
2:53 PM82.9 °F63.0 °F51 %30.13 in10.0 miSouth (180°)5.8 mphScattered Clouds
3:53 PM84.0 °F62.1 °F47 %30.11 in10.0 miVariable3.5 mphScattered Clouds
4:53 PM82.9 °F61.0 °F47 %30.11 in10.0 miENE (60°)4.6 mphClear
5:53 PM82.9 °F62.1 °F49 %30.10 in10.0 miEast (80°)4.6 mphClear
6:53 PM81.0 °F62.1 °F52 %30.10 in10.0 miESE (110°)4.6 mphClear
7:53 PM78.1 °F64.0 °F62 %30.11 in10.0 miEast (80°)4.6 mphClear
8:53 PM72.0 °F66.0 °F81 %30.12 in10.0 miCalmClear
11:53 PM64.9 °F64.0 °F97 %30.12 in10.0 miCalmClear
Hourly data recorded from KPKB, located miles away from Parkersburg, West Virginia







STORIES FROM OUR PARTNERS